Location: Bois de la Silve
(44.4667°N, 6.7833°E)
Time: 10:53:24
(UTC+00:00)

SeaSat 1 - Pass Details

Date: 14 July 2020
Orbit: 744 x 747 km, 108.0° (Epoch: 05 August)

Event Time Altitude Azimuth Distance (km) Brightness Sun altitude
Rises 02:14:29 0° 21° (NNE) 3,201 7.3 -15.0°
Reaches altitude 10° 02:16:50 10° 16° (NNE) 2,273 6.1 -14.7°
Maximum altitude 02:21:30 44° 305° (NW) 1,024 3.1 -14.2°
Enters shadow 02:24:47 19° 241° (WSW) 1,751 3.8 -13.8°
